K5LLL-13 Weather Reports


Display with metric or nautical units.
time (UTC)temp
F
wind
direction
speed
MPH
gust
MPH
rain 1hr
in
rain 24hr
in
rain mn
in
humidity
%
barometer
mb
20260504141015 68 135 4.0 9.0 0.00 0.00 0.00 75 1016.1
20260504081017 61 135 3.0 6.0 0.00 0.00 0.00 81 1016.7
20260504045017 64 135 5.0 8.0 0.00 0.00 0.00 73 1018.8
20260504044037 64 135 4.0 8.0 0.00 0.00 0.00 73 1018.8
20260504043057 64 135 5.0 10.0 0.00 0.00 0.00 73 1018.8
20260504042017 64 135 6.0 12.0 0.00 0.00 0.00 73 1018.8
20260504041017 65 135 5.0 10.0 0.00 0.00 0.00 72 1018.9
20260504040017 65 135 4.0 8.0 0.00 0.00 0.00 72 1019.0
20260504035016 65 135 5.0 11.0 0.00 0.00 0.00 71 1019.0
20260504034017 65 135 4.0 8.0 0.00 0.00 0.00 71 1018.8
20260504033016 65 135 5.0 9.0 0.00 0.00 0.00 70 1018.9
20260504032017 65 135 5.0 10.0 0.00 0.00 0.00 68 1018.7
20260504031017 65 135 3.0 8.0 0.00 0.00 0.00 66 1018.7
20260504030017 66 135 3.0 8.0 0.00 0.00 0.00 63 1018.7
20260504025017 66 135 4.0 7.0 0.00 0.00 0.00 62 1018.7
20260504024017 66 135 4.0 6.0 0.00 0.00 0.00 60 1018.9
20260504023017 67 135 3.0 7.0 0.00 0.00 0.00 58 1018.7
20260504022016 67 113 3.0 6.0 0.00 0.00 0.00 58 1018.2
20260504021016 68 113 3.0 5.0 0.00 0.00 0.00 58 1018.0
20260504020017 68 113 3.0 6.0 0.00 0.00 0.00 58 1017.9
20260504015016 69 113 3.0 6.0 0.00 0.00 0.00 58 1018.0
20260504014016 69 113 2.0 4.0 0.00 0.00 0.00 58 1017.9
20260504013016 70 113 2.0 5.0 0.00 0.00 0.00 56 1017.9
20260504012017 70 113 2.0 4.0 0.00 0.00 0.00 55 1017.7
20260504011016 71 113 2.0 5.0 0.00 0.00 0.00 53 1017.7
20260504010016 72 113 3.0 7.0 0.00 0.00 0.00 52 1017.7
20260504005056 72 113 3.0 7.0 0.00 0.00 0.00 51 1017.8
20260504004017 73 135 3.0 6.0 0.00 0.00 0.00 50 1017.7
20260504003016 74 113 3.0 5.0 0.00 0.00 0.00 49 1017.8
20260504002016 74 135 3.0 8.0 0.00 0.00 0.00 48 1018.1
20260504001016 75 135 3.0 9.0 0.00 0.00 0.00 46 1018.2
20260504000037 76 135 6.0 12.0 0.00 0.00 0.00 43 1018.3
20260503235017 76 135 5.0 11.0 0.00 0.00 0.00 43 1018.4
20260503234036 76 135 5.0 11.0 0.00 0.00 0.00 43 1018.4
20260503233036 76 135 5.0 10.0 0.00 0.00 0.00 43 1018.2
20260503232016 77 135 6.0 14.0 0.00 0.00 0.00 41 1018.1
20260503231016 78 135 5.0 13.0 0.00 0.00 0.00 39 1018.2
20260503230036 79 158 3.0 13.0 0.00 0.00 0.00 39 1018.4
20260503225016 78 135 5.0 10.0 0.00 0.00 0.00 37 1018.4
20260503224016 78 135 4.0 8.0 0.00 0.00 0.00 39 1018.7
20260503223016 79 135 4.0 10.0 0.00 0.00 0.00 39 1018.8
20260503222016 78 135 6.0 11.0 0.00 0.00 0.00 41 1018.8
20260503221016 78 135 3.0 10.0 0.00 0.00 0.00 39 1018.8
20260503220017 79 135 5.0 13.0 0.00 0.00 0.00 39 1019.0
20260503215016 79 158 6.0 12.0 0.00 0.00 0.00 41 1019.2
20260503214016 78 113 5.0 12.0 0.00 0.00 0.00 42 1019.2
20260503213016 78 158 6.0 12.0 0.00 0.00 0.00 39 1019.8
20260503212016 79 203 4.0 12.0 0.00 0.00 0.00 40 1020.0
20260503211016 79 113 6.0 19.0 0.00 0.00 0.00 40 1020.2
20260503210016 79 135 4.0 10.0 0.00 0.00 0.00 37 1020.2
20260503205016 78 113 6.0 13.0 0.00 0.00 0.00 37 1020.2
20260503204017 79 135 4.0 11.0 0.00 0.00 0.00 36 1020.6
20260503203016 79 135 4.0 9.0 0.00 0.00 0.00 37 1020.6
20260503202016 78 90 6.0 13.0 0.00 0.00 0.00 34 1020.7
20260503201016 79 113 5.0 11.0 0.00 0.00 0.00 38 1020.9
20260503200016 78 135 3.0 10.0 0.00 0.00 0.00 38 1020.9
20260503195016 78 135 5.0 13.0 0.00 0.00 0.00 39 1021.2
20260503194016 78 135 6.0 11.0 0.00 0.00 0.00 36 1021.3
20260503193016 78 135 8.0 17.0 0.00 0.00 0.00 37 1021.4
20260503192037 78 90 4.0 11.0 0.00 0.00 0.00 40 1021.5
20260503191016 79 135 5.0 10.0 0.00 0.00 0.00 39 1021.7
20260503190016 78 135 5.0 10.0 0.00 0.00 0.00 41 1021.9
20260503185016 78 135 7.0 14.0 0.00 0.00 0.00 39 1022.1
20260503184016 77 113 6.0 14.0 0.00 0.00 0.00 39 1022.0
20260503183016 77 135 5.0 12.0 0.00 0.00 0.00 40 1022.3
20260503182016 77 113 6.0 13.0 0.00 0.00 0.00 40 1022.5
20260503180016 77 158 6.0 11.0 0.00 0.00 0.00 40 1022.8
20260503175015 77 90 4.0 13.0 0.00 0.00 0.00 42 1022.8
20260503174016 76 113 5.0 9.0 0.00 0.00 0.00 42 1023.0
20260503173016 77 203 3.0 9.0 0.00 0.00 0.00 41 1023.3
20260503172015 77 180 3.0 9.0 0.00 0.00 0.00 42 1023.4
20260503171015 76 113 4.0 7.0 0.00 0.00 0.00 40 1023.6